Temperature
14 14 14 14 14 14 14 14 14 14 14 14 15 15 15 15 15 15 15 14 14 14 15 15 15 15 15 15 15 15 15 15 15 15 15 15 15 15 15 15 15 15 15
14 14 13 14 14 14 14 14 14 14 14 14 14 14 14 14 14 14 14 14 14 14 14 14 15 15 15 15 15 15 15 15 15 15 15 15 15 15 15 15 15 15 15
14 13 13 13 13 14 14 14 14 14 14 14 14 14 14 14 14 14 14 14 14 14 14 14 14 14 14 15 15 14 14 15 15 15 15 15 15 15 15 15 15 15 15
13 13 13 13 13 13 14 14 14 14 14 14 14 14 14 14 14 14 14 14 14 14 14 14 14 14 14 14 14 14 14 14 14 14 14 14 14 14 14 14 14 14 14
13 13 13 13 13 13 13 13 13 14 14 14 13 14 14 14 14 14 14 14 14 14 14 14 14 14 14 14 14 14 14 14 14 14 14 14 14 14 14 14 14 14 14
13 13 13 13 13 13 13 13 13 13 13 13 13 13 13 13 13 13 13 14 14 14 14 14 14 14 14 14 14 14 14 14 14 14 14 14 14 14 14 14 14 14 14
12 12 13 12 12 13 13 13 13 13 13 13 13 13 13 13 13 13 13 13 13 13 13 13 13 13 13 13 14 14 13 14 14 14 14 13 13 13 13 13 14 14 14
12 12 12 12 12 12 12 12 12 13 13 13 13 13 13 13 13 13 13 13 13 13 13 13 13 13 13 13 13 13 13 13 13 13 13 13 13 13 13 13 13 13 13
11 12 12 12 12 12 12 12 12 12 12 12 12 12 12 12 12 12 12 12 13 13 13 13 13 13 13 13 13 13 13 13 13 13 13 13 12 12 12 13 13 13 13
11 11 11 11 11 11 12 12 12 11 11 12 12 12 12 12 12 12 12 12 12 12 12 12 12 12 12 12 12 12 12 12 13 12 12 12 12 12 12 12 12 12 12
11 11 11 11 11 11 11 11 11 11 11 11 11 11 11 11 11 11 11 12 12 12 12 12 12 12 12 12 12 12 12 12 12 12 12 12 11 11 11 12 12 12 12
10 10 10 10 10 10 11 11 11 11 11 11 11 11 11 11 11 11 11 11 11 11 11 11 11 11 11 12 12 12 12 12 12 12 11 11 11 11 11 11 11 11 12
10 10 10 10 10 10 10 10 10 10 10 10 11 11 11 11 10 10 10 11 11 11 11 11 11 11 11 11 11 11 11 11 11 11 11 11 11 11 11 11 11 11 11
10 10 10 10 10 10 10 10 10 10 10 10 10 10 10 10 10 10 10 10 10 10 10 10 11 11 11 11 11 11 11 11 11 11 11 11 11 11 10 11 10 11 11
9 9 9 9 9 9 9 9 9 10 10 10 10 10 10 10 10 10 10 10 10 10 10 10 10 10 10 10 10 10 10 10 10 11 10 10 10 10 10 10 10 10 10
9 9 8 9 9 9 9 9 9 9 9 9 9 9 9 9 9 9 9 9 10 10 10 10 10 10 10 10 10 10 10 10 10 10 10 10 10 10 10 10 10 10 10
8 8 8 8 8 8 8 8 8 8 8 8 8 8 8 9 9 9 9 9 9 9 9 9 9 9 9 9 9 9 9 9 9 10 10 10 10 10 10 9 9 9 9
8 7 7 7 7 8 8 8 8 8 8 8 7 8 8 8 8 8 8 8 8 8 9 9 9 9 9 9 9 9 9 9 9 9 9 9 9 9 9 9 9 9 9
7 7 7 7 7 7 7 7 7 7 7 7 7 7 7 7 7 7 8 8 8 8 8 8 8 8 8 8 8 8 8 8 8 8 8 8 9 9 9 9 9 9 8
7 7 6 6 6 6 6 6 6 6 6 6 6 6 6 7 7 7 7 7 7 7 7 7 8 7 7 8 7 7 8 7 8 8 8 8 8 8 8 8 8 8 8
6 6 6 6 6 6 5 5 5 5 5 6 6 6 6 6 6 6 6 7 7 7 7 7 7 7 7 7 7 7 7 7 7 7 7 7 7 7 7 7 7 7 7
6 6 5 5 5 5 5 5 5 5 5 5 5 5 5 5 5 6 6 6 6 6 6 6 6 6 6 6 6 6 6 6 6 6 6 6 6 6 6 6 6 6 7
5 5 5 5 5 4 4 4 4 4 4 4 4 4 4 5 5 5 5 5 5 5 5 5 5 6 6 5 5 5 5 5 5 5 5 5 5 6 6 6 6 6 6
4 4 4 4 4 4 4 4 4 4 4 4 4 4 4 4 4 4 4 4 4 5 5 5 5 5 5 5 5 4 4 4 4 4 4 4 4 5 5 5 5 5 5
4 4 4 3 3 3 3 3 3 3 3 3 3 3 3 3 3 3 4 4 4 4 4 4 4 4 4 4 4 4 4 4 4 3 3 4 4 4 4 4 4 4 5
3 3 3 3 3 3 3 3 3 3 3 3 3 3 3 3 3 3 3 3 3 3 3 3 3 3 4 4 4 3 3 3 3 3 3 3 3 3 3 3 3 4 4
Wind_Speed
2 2 1 2 3 4 5 6 7 9 10 10 11 11 12 12 12 12 12 13 12 13 13 13 13 13 14 15 16 16 16 16 16 16 16 16 17 17 17 17 16 15 17
2 2 3 3 4 5 6 6 8 9 10 10 11 11 12 12 12 12 13 13 13 13 13 14 14 14 15 16 16 16 16 16 16 16 16 15 16 17 17 16 16 15 17
2 2 3 4 5 6 6 7 8 9 10 11 11 11 12 12 12 13 13 13 13 13 14 14 14 15 15 16 16 16 16 16 16 15 15 14 14 16 16 16 16 17 16
3 3 3 5 6 7 7 8 9 10 11 11 11 11 12 12 12 12 12 13 13 13 14 14 14 15 15 15 15 15 16 16 15 14 13 12 13 15 16 16 16 16 16
4 4 4 6 8 8 8 8 9 10 11 11 11 11 11 11 12 12 12 13 13 13 13 14 15 15 15 15 15 15 15 15 14 13 12 12 12 14 15 15 16 16 16
5 5 4 7 8 8 8 9 10 10 11 11 11 11 10 11 11 12 12 12 12 12 13 13 14 15 15 14 14 14 14 14 13 12 11 11 11 13 14 15 15 15 16
5 5 5 7 8 9 9 9 9 9 10 11 11 11 10 10 11 11 11 12 12 12 12 12 13 14 14 15 14 13 13 13 12 11 10 10 11 13 13 13 14 14 15
5 6 6 7 8 9 10 10 9 9 10 10 10 10 10 10 10 11 11 11 11 11 11 11 12 13 13 13 14 13 13 12 11 10 9 9 10 12 12 13 13 13 14
6 6 7 6 7 7 8 9 9 9 10 10 10 10 10 10 10 10 10 10 10 10 10 10 11 12 12 12 13 13 13 13 11 9 9 9 10 11 12 12 12 12 12
6 6 6 6 6 7 7 7 8 9 9 9 9 9 10 9 9 9 9 9 9 9 9 9 10 11 11 11 12 12 12 11 11 9 8 8 10 10 11 11 11 12 12
4 4 5 6 6 6 6 7 7 8 9 9 9 9 9 8 8 8 8 8 8 9 9 9 9 10 10 11 11 11 11 9 9 8 7 8 9 9 10 10 11 11 11
2 2 4 4 5 6 6 6 7 7 8 8 8 8 7 7 7 7 8 8 8 8 8 9 9 10 10 9 9 10 9 9 8 7 6 7 8 8 9 9 10 10 10
2 2 2 3 4 5 5 6 6 6 7 8 8 8 8 7 7 7 7 7 7 7 7 7 8 8 8 8 8 8 8 7 7 6 6 7 7 7 8 8 9 9 10
2 2 2 3 4 4 5 5 5 5 5 5 6 7 7 5 5 5 5 5 6 6 6 6 6 7 8 8 8 8 8 7 6 6 6 7 7 7 7 7 8 8 9
2 1 1 2 3 3 4 4 4 4 4 5 5 6 6 5 4 4 4 5 5 5 5 5 5 6 6 6 7 7 6 6 6 6 5 6 7 6 6 6 7 7 8
3 2 1 2 2 3 3 3 3 4 4 5 5 5 5 5 3 3 4 4 4 4 4 4 4 4 4 5 5 6 5 5 6 6 5 5 6 6 6 6 6 6 7
3 2 2 2 3 3 3 3 3 4 4 4 4 4 5 5 4 3 3 3 3 4 5 5 5 5 4 4 4 5 5 5 5 5 6 5 5 5 5 5 5 5 6
3 3 2 2 2 3 3 3 3 4 4 4 4 4 4 4 4 4 3 2 3 4 4 3 3 2 2 2 2 3 4 4 5 5 6 6 5 5 4 4 3 4 5
4 4 3 2 2 2 3 3 3 3 4 4 4 3 3 3 4 4 3 3 3 3 3 3 2 1 2 2 2 2 3 3 4 5 5 6 6 6 5 5 5 4 4
4 4 3 2 2 2 3 3 3 3 3 3 3 3 3 3 3 3 3 3 3 3 2 2 2 2 1 2 2 3 3 3 4 4 5 6 6 6 7 6 6 5 6
3 3 3 2 2 2 2 1 1 1 0 1 2 2 2 2 2 3 3 2 2 2 1 2 2 2 1 1 2 2 2 3 3 4 5 5 6 6 6 6 5 5 4
5 4 4 3 3 3 2 2 1 1 1 1 1 2 2 2 2 2 2 2 1 1 2 2 2 1 1 1 2 1 0 1 2 2 3 3 4 4 5 5 5 4 4
4 4 4 4 3 2 2 2 2 1 1 0 1 1 2 1 1 1 1 2 1 1 2 2 3 3 2 1 1 2 2 2 1 1 1 2 2 2 3 4 4 4 3
4 3 3 3 3 3 3 3 3 2 2 2 2 1 1 1 1 1 1 1 1 1 1 2 2 2 3 3 1 1 1 2 2 1 1 1 1 2 2 2 2 2 3
3 3 3 3 3 2 3 4 3 2 2 1 1 1 1 1 1 1 0 1 1 1 1 1 1 2 3 3 3 2 1 1 1 2 2 1 1 1 1 1 1 1 1
1 2 2 2 2 2 3 3 4 3 2 1 1 2 1 1 1 1 0 1 1 1 1 2 2 3 3 3 3 3 3 2 2 2 2 2 2 2 2 1 1 2 1
Wind_Direction
243 287 215 135 114 105 97 91 95 94 95 94 91 89 86 83 81 77 77 76 74 72 72 73 75 76 81 85 87 87 85 82 80 79 78 81 85 85 83 81 81 81 83
196 205 167 145 125 117 105 96 98 99 99 95 91 90 87 84 81 78 76 74 72 72 73 75 75 78 81 85 87 87 86 81 78 77 77 79 84 85 83 82 81 83 82
97 136 142 137 127 122 112 103 101 100 100 96 90 89 88 84 81 80 77 74 72 72 74 76 76 79 81 83 85 86 85 81 77 75 76 77 83 86 85 84 84 84 83
92 105 117 123 127 122 113 108 105 103 100 96 92 90 88 85 81 79 77 75 73 72 73 75 76 81 83 83 83 84 85 81 76 74 73 76 84 88 88 86 87 87 85
76 83 103 114 123 119 114 110 107 103 102 98 95 93 91 87 84 80 77 75 74 74 76 74 75 78 82 83 82 83 83 79 75 72 72 75 84 90 90 88 87 87 86
70 75 95 104 115 115 110 112 111 107 105 102 99 97 94 91 87 83 78 76 76 77 78 78 77 77 79 83 83 82 81 77 75 72 71 75 84 91 92 91 89 88 87
75 67 90 101 101 103 105 107 111 109 107 102 99 96 93 93 90 85 81 78 78 80 79 79 81 80 79 79 80 80 80 79 76 72 69 77 88 92 95 94 93 92 89
81 69 75 93 98 97 94 92 95 104 104 99 96 94 91 90 90 88 84 80 77 79 79 79 81 81 80 79 78 76 75 77 76 72 70 79 90 93 96 97 96 94 93
74 70 66 73 82 89 91 91 91 86 88 91 91 90 87 85 84 85 83 82 80 78 80 80 82 80 79 78 77 76 75 73 73 71 72 79 87 94 96 97 97 97 96
69 63 60 64 68 70 76 84 89 87 82 81 82 83 83 78 75 77 78 81 81 80 80 82 81 80 79 78 77 77 76 71 69 69 72 80 85 93 97 99 100 100 99
71 57 56 59 61 66 72 75 81 84 82 79 77 78 77 71 67 66 69 75 77 77 78 76 81 79 78 76 75 77 76 70 68 66 75 82 86 91 98 101 102 102 102
108 70 51 63 62 66 69 70 70 73 75 74 73 73 75 74 71 68 68 69 70 74 77 74 77 77 74 71 70 73 72 70 69 63 75 87 90 93 97 103 104 105 103
136 106 61 66 71 73 71 71 67 66 66 69 70 73 79 74 66 63 62 59 61 66 67 67 68 72 73 72 70 67 67 70 65 61 68 84 92 98 101 104 108 107 104
109 98 73 69 74 74 80 79 78 71 65 64 66 74 79 73 61 58 64 62 67 70 66 65 69 70 75 75 75 68 63 63 57 55 61 69 81 98 106 110 110 110 108
133 116 79 69 85 86 83 78 79 77 74 71 67 69 77 77 71 62 64 67 68 73 74 69 70 69 71 72 72 71 61 55 52 49 47 55 67 83 99 109 108 106 109
171 168 140 92 82 89 90 86 79 82 83 78 69 64 75 79 77 77 68 65 64 71 76 79 75 78 70 76 69 65 62 56 52 47 42 47 56 68 81 94 102 104 107
175 163 151 131 88 91 92 95 88 86 90 79 70 65 67 75 84 83 77 62 60 81 85 79 73 76 68 64 65 58 59 54 51 48 47 48 53 58 71 78 87 98 107
155 150 146 121 104 104 98 87 89 88 89 79 73 64 59 68 85 93 81 62 66 87 89 83 77 80 80 60 54 48 44 47 45 50 54 52 55 57 61 63 75 91 99
163 156 147 132 128 116 105 94 78 81 80 78 74 63 52 64 80 99 93 80 87 78 76 90 81 98 110 87 55 45 41 44 40 50 53 52 54 54 57 59 63 69 76
157 151 148 138 126 108 101 90 82 67 64 69 68 58 56 59 71 89 89 84 92 86 77 85 100 79 109 101 75 47 32 37 44 48 49 53 52 52 57 65 67 61 57
151 148 152 142 133 118 117 137 157 181 18 43 53 59 67 65 69 78 81 90 91 115 128 117 109 101 95 81 81 46 29 39 50 40 40 49 47 46 54 55 62 69 62
175 170 166 165 158 154 154 169 174 165 165 57 44 54 60 73 77 79 88 96 92 126 130 135 122 129 103 94 111 111 58 358 16 27 34 47 40 40 43 37 43 57 59
188 187 182 178 169 162 133 115 100 88 85 47 340 341 6 58 86 75 99 110 112 146 172 180 171 156 167 166 105 139 155 209 262 336 28 37 23 30 34 31 31 28 30
200 186 176 172 167 163 145 150 152 173 196 223 241 271 330 10 54 59 89 112 131 139 177 201 184 181 168 179 181 77 110 148 158 218 289 3 359 356 8 21 10 0 5
183 169 173 166 162 160 165 173 175 192 211 208 215 259 295 326 353 24 108 134 161 178 194 204 202 193 190 183 177 170 127 80 109 165 214 259 305 289 309 304 288 291 325
144 144 152 162 171 167 173 183 188 196 196 183 218 234 265 285 285 301 300 204 203 201 204 214 205 203 207 193 181 176 174 173 179 172 197 230 255 270 284 267 225 227 243
Height
1521 1523 1524 1526 1527 1528 1529 1530 1531 1532 1532 1532 1533 1533 1533 1533 1533 1533 1533 1533 1533 1533 1533 1532 1531 1529 1528 1528 1529 1531 1533 1535 1536 1538 1539 1540 1541 1542 1542 1543 1544 1544 1545
1520 1522 1524 1526 1527 1528 1529 1530 1531 1532 1532 1533 1533 1533 1534 1534 1534 1534 1534 1534 1534 1534 1534 1533 1533 1532 1531 1531 1532 1533 1535 1537 1538 1539 1541 1542 1543 1544 1544 1545 1545 1546 1547
1520 1522 1524 1525 1527 1528 1529 1530 1531 1532 1533 1533 1534 1534 1534 1535 1535 1535 1535 1535 1535 1535 1535 1534 1534 1534 1533 1533 1534 1536 1537 1538 1540 1541 1542 1543 1544 1545 1546 1547 1547 1548 1549
1520 1522 1523 1525 1526 1527 1529 1530 1531 1532 1533 1533 1534 1534 1535 1535 1535 1536 1536 1536 1536 1536 1536 1536 1536 1536 1536 1536 1537 1538 1539 1540 1542 1543 1544 1545 1546 1547 1548 1548 1549 1549 1550
1520 1521 1523 1525 1526 1527 1529 1530 1531 1532 1533 1533 1534 1535 1535 1536 1536 1536 1537 1537 1537 1537 1537 1537 1537 1537 1538 1538 1539 1540 1541 1542 1543 1544 1545 1546 1547 1548 1549 1550 1550 1551 1551
1520 1521 1523 1524 1526 1527 1529 1530 1531 1532 1533 1533 1534 1535 1535 1536 1536 1536 1537 1537 1538 1538 1538 1538 1538 1539 1539 1540 1541 1541 1542 1543 1544 1545 1546 1547 1548 1549 1550 1551 1551 1552 1553
1520 1521 1523 1524 1526 1527 1528 1530 1531 1532 1533 1533 1534 1535 1536 1536 1536 1537 1537 1538 1538 1539 1539 1539 1539 1540 1540 1541 1541 1542 1543 1544 1545 1546 1547 1548 1549 1550 1551 1551 1552 1553 1554
1520 1521 1523 1524 1525 1527 1528 1529 1531 1532 1532 1533 1534 1535 1535 1536 1537 1537 1538 1538 1539 1539 1540 1540 1540 1541 1541 1542 1542 1543 1544 1545 1546 1547 1548 1549 1550 1550 1551 1552 1553 1554 1554
1520 1521 1522 1524 1525 1526 1528 1529 1530 1531 1532 1533 1534 1534 1535 1536 1536 1537 1538 1539 1539 1540 1540 1541 1540 1541 1542 1543 1543 1544 1545 1546 1546 1547 1548 1549 1550 1551 1551 1552 1553 1554 1555
1519 1520 1522 1523 1525 1526 1527 1528 1530 1531 1531 1532 1533 1534 1535 1536 1536 1537 1538 1539 1539 1540 1541 1541 1541 1542 1542 1543 1544 1545 1545 1546 1547 1547 1548 1549 1550 1551 1551 1552 1553 1554 1555
1518 1519 1521 1522 1524 1525 1527 1528 1529 1530 1531 1532 1533 1533 1534 1535 1536 1537 1537 1538 1539 1540 1540 1541 1541 1542 1543 1543 1544 1545 1545 1546 1547 1547 1548 1549 1550 1551 1551 1552 1553 1554 1555
1516 1518 1520 1521 1523 1524 1526 1527 1528 1529 1530 1531 1532 1533 1533 1534 1535 1536 1537 1538 1539 1540 1540 1541 1541 1542 1543 1543 1544 1545 1545 1546 1547 1547 1548 1549 1549 1550 1551 1552 1553 1554 1555
1515 1517 1519 1520 1522 1523 1524 1526 1527 1528 1529 1530 1531 1532 1533 1533 1534 1535 1536 1537 1538 1539 1540 1540 1541 1541 1542 1543 1543 1544 1545 1546 1546 1547 1547 1548 1548 1549 1550 1551 1552 1553 1554
1513 1515 1517 1519 1520 1522 1523 1525 1525 1526 1527 1528 1529 1530 1531 1532 1533 1534 1535 1536 1537 1538 1539 1539 1540 1541 1541 1542 1543 1544 1545 1545 1546 1546 1547 1547 1547 1548 1549 1550 1551 1552 1553
1512 1514 1515 1517 1519 1520 1522 1523 1524 1525 1526 1526 1528 1529 1530 1530 1531 1532 1533 1535 1536 1537 1537 1538 1539 1539 1540 1541 1542 1543 1544 1544 1545 1546 1546 1546 1546 1547 1548 1549 1550 1551 1553
1509 1511 1513 1515 1516 1517 1519 1521 1522 1523 1524 1525 1525 1527 1528 1529 1530 1531 1532 1533 1534 1535 1536 1536 1537 1538 1539 1540 1541 1542 1543 1543 1544 1545 1545 1545 1546 1546 1547 1548 1550 1551 1552
1507 1509 1510 1512 1513 1515 1516 1518 1519 1520 1521 1522 1523 1524 1525 1527 1528 1529 1530 1531 1532 1533 1534 1535 1536 1536 1537 1538 1539 1540 1541 1542 1543 1543 1544 1544 1545 1546 1547 1547 1549 1550 1551
1504 1506 1508 1509 1511 1512 1514 1515 1516 1517 1518 1520 1521 1522 1523 1524 1525 1526 1527 1529 1530 1530 1531 1532 1533 1534 1535 1536 1537 1538 1539 1540 1541 1542 1542 1543 1544 1545 1546 1547 1548 1549 1550
1501 1503 1505 1506 1508 1509 1511 1512 1513 1514 1515 1517 1518 1519 1520 1522 1523 1524 1525 1526 1527 1528 1529 1530 1530 1531 1532 1533 1534 1536 1537 1538 1539 1540 1541 1541 1542 1543 1544 1545 1546 1547 1548
1498 1500 1502 1503 1505 1506 1507 1509 1510 1511 1512 1514 1515 1516 1518 1519 1520 1521 1522 1523 1524 1525 1526 1526 1528 1529 1529 1531 1532 1533 1535 1536 1537 1538 1538 1539 1540 1541 1542 1543 1544 1545 1546
1495 1497 1498 1500 1501 1502 1504 1505 1506 1508 1509 1510 1512 1513 1514 1516 1517 1518 1519 1520 1521 1522 1522 1523 1525 1525 1526 1527 1529 1530 1531 1533 1534 1535 1536 1537 1538 1539 1540 1541 1541 1542 1544
1491 1493 1495 1496 1498 1499 1500 1502 1503 1504 1506 1507 1508 1509 1511 1512 1513 1515 1515 1516 1517 1518 1519 1520 1521 1522 1523 1524 1526 1527 1528 1530 1530 1531 1532 1534 1535 1536 1537 1538 1539 1540 1541
1487 1489 1491 1493 1494 1496 1497 1499 1500 1501 1502 1503 1505 1506 1507 1508 1510 1511 1512 1513 1514 1515 1515 1516 1517 1518 1519 1521 1522 1525 1525 1525 1526 1528 1529 1530 1532 1533 1534 1535 1536 1537 1537
1484 1486 1488 1490 1491 1493 1494 1495 1496 1497 1498 1499 1501 1502 1503 1504 1506 1507 1508 1509 1510 1511 1512 1513 1514 1515 1516 1517 1519 1520 1522 1522 1523 1523 1525 1527 1528 1529 1530 1531 1532 1533 1534
1481 1482 1484 1486 1488 1489 1490 1492 1493 1494 1495 1496 1497 1498 1500 1501 1502 1503 1504 1505 1506 1507 1508 1509 1510 1511 1512 1513 1514 1516 1517 1518 1519 1520 1520 1522 1524 1526 1526 1527 1528 1530 1530
1477 1479 1481 1483 1484 1486 1487 1488 1489 1490 1491 1492 1493 1494 1496 1497 1498 1499 1500 1501 1502 1503 1504 1505 1506 1507 1508 1509 1510 1511 1513 1514 1514 1516 1517 1518 1519 1521 1522 1523 1525 1526 1526